JE7ZDC Weather Reports


time (UTC)temp
C
wind
direction
speed
KPH
gust
KPH
rain 1hr
cm
rain 24hr
cm
rain mn
cm
humidity
%
barometer
mb
20260505041504 18 202 0.0 4.8 0.00 0.25 0.05 40 1017.9
20260505040106 19 110 0.0 3.2 0.00 0.25 0.05 42 1018.1
20260505034557 19 106 0.0 3.2 0.00 0.25 0.05 40 1018.1
20260505033055 18 246 0.0 3.2 0.00 0.25 0.05 46 1018.2
20260505031552 18 67 0.0 4.8 0.00 0.25 0.05 46 1018.4
20260505030049 18 139 1.6 4.8 0.00 0.25 0.05 45 1018.6
20260505024547 16 150 0.0 3.2 0.00 0.25 0.05 49 1018.6
20260505023051 16 37 0.0 11.3 0.00 0.25 0.05 47 1018.4
20260505021543 17 281 0.0 11.3 0.00 0.25 0.05 45 1018.5
20260505020041 17 64 3.2 17.7 0.00 0.25 0.05 45 1018.5
20260505014538 17 278 0.0 8.0 0.00 0.25 0.05 45 1018.6
20260505013034 16 39 0.0 9.7 0.00 0.25 0.05 49 1018.4
20260505011530 15 318 0.0 6.4 0.00 0.25 0.05 49 1018.4
20260505010029 15 175 3.2 11.3 0.00 0.25 0.05 51 1018.3
20260505004528 15 32 0.0 9.7 0.00 0.25 0.05 52 1018.3
20260505003027 14 165 1.6 12.9 0.00 0.25 0.05 52 1018.3
20260505001525 15 278 0.0 12.9 0.00 0.25 0.05 51 1018.1
20260505000124 15 246 0.0 8.0 0.00 0.25 0.05 53 1018.0
20260504234519 15 77 0.0 12.9 0.00 0.25 0.05 55 1017.6
20260504233016 14 247 0.0 4.8 0.00 0.25 0.05 57 1017.5
20260504231513 13 270 0.0 6.4 0.00 0.25 0.05 59 1017.4
20260504230011 13 268 0.0 8.0 0.00 0.25 0.05 60 1017.6
20260504224509 13 84 1.6 8.0 0.00 0.25 0.05 62 1017.4
20260504223005 12 37 0.0 3.2 0.00 0.25 0.05 70 1017.0
20260504221600 11 111 0.0 1.6 0.00 0.25 0.05 72 1016.8
20260504220115 10 30 0.0 3.2 0.00 0.25 0.05 75 1016.7
20260504214556 10 96 0.0 1.6 0.00 0.25 0.05 78 1016.6
20260504213056 9 37 0.0 3.2 0.00 0.25 0.05 82 1016.5
20260504211553 8 4 0.0 1.6 0.00 0.25 0.05 85 1016.4
20260504210046 7 37 0.0 3.2 0.00 0.25 0.05 87 1015.9
20260504204544 6 157 0.0 0.0 0.00 0.25 0.05 89 1015.7
20260504203042 -17 0.0 0.0 0.00 0.25 0.05 1015.5
20260504201538 -17 0.0 0.0 0.00 0.25 0.05 1015.3
20260504200040 -17 0.0 0.0 0.00 0.25 0.05 1015.0
20260504194528 -17 0.0 0.0 0.00 0.28 0.05 1014.6
20260504193023 -17 0.0 0.0 0.03 0.28 0.05 1014.5
20260504191535 6 54 0.0 0.0 0.05 0.28 0.05 88 1014.4
20260504190018 6 47 0.0 6.4 0.05 0.28 0.05 87 1014.1
20260504184515 6 345 3.2 25.7 0.05 0.28 0.05 85 1013.5
20260504183111 7 214 0.0 17.7 0.03 0.25 0.05 80 1013.3
20260504181508 7 245 0.0 3.2 0.00 0.23 0.03 78 1012.9
20260504180005 7 138 0.0 6.4 0.00 0.23 0.03 78 1012.7
20260504174504 7 138 0.0 3.2 0.00 0.23 0.03 79 1012.4
20260504173003 7 248 0.0 11.3 0.00 0.23 0.03 80 1012.3
20260504171558 8 266 0.0 14.5 0.03 0.23 0.03 76 1011.8
20260504081520 16 269 12.9 38.6 0.08 0.10 0.10 57 996.9